User: anonymous   Login
Location: Kailua
(21.4020°N, 157.7390°W)
Time: 18:50:06
(UTC-10:00)
Language:

Cosmos 2221 Rocket - Orbit

View from above orbital plane
View from above orbital plane
View from above satellite
View from above satellite

Ground track
Ground track

The orbit data is extracted from the following two-line orbital elements,

1 22237U 92080B   15181.24210068  .00000134  00000-0  15295-4 0  9998
2 22237 082.5124 065.5158 0020734 036.6667 073.7576 14.78153122217379
Epoch (UTC): 30 June 2015 05:48:37
Eccentricity: 0.0020734
inclination: 82.5124°
perigee height: 620 km
apogee height: 650 km
right ascension of ascending node: 65.5158°
argument of perigee: 36.6667°
revolutions per day: 14.78153122
mean anomaly at epoch: 73.7576°
orbit number at epoch: 21737

The dashed part of the orbit path shows where the satellite is in the earth's shadow,  

DLR